Theta_e
321 321 321 321 321 320 321 322 322 321 321 321 320 321 321 321 320 318 318 321 321 322 322 322 322 322 323 324 325 324 324 326 327 327 327 327 327 327 327 328 327 328 329 328 328 329 332 335 333 330 328 327 327 326 325 325 323 321 322 322 324 325 326
321 320 320 321 321 321 322 322 321 319 319 319 318 319 318 319 319 316 315 317 317 316 317 318 319 320 321 322 322 321 322 323 325 326 326 325 325 324 325 326 327 328 329 328 327 325 326 331 334 333 328 326 328 327 327 326 324 322 322 322 323 324 325
321 321 320 321 321 322 321 320 318 318 318 317 316 316 316 316 317 316 315 316 315 314 314 315 316 317 319 320 320 319 319 320 321 322 322 320 319 319 320 321 324 326 326 324 323 322 322 325 329 328 321 320 324 325 325 326 324 322 323 322 322 322 323
320 320 320 321 321 321 320 319 319 317 316 316 315 315 315 315 314 314 315 315 315 315 316 316 317 317 317 318 319 318 318 318 319 319 317 316 316 317 317 318 319 320 319 318 318 317 318 319 322 322 316 315 317 316 319 323 323 323 323 321 320 321 322
320 320 320 321 321 320 320 320 320 318 316 315 316 315 314 315 315 314 314 315 316 316 316 316 316 316 316 317 317 317 317 316 317 319 316 315 316 315 315 316 315 314 314 315 316 315 316 316 317 317 315 315 316 314 314 317 319 322 321 320 319 318 319
320 320 319 321 321 320 320 320 319 318 317 317 317 315 313 315 316 315 314 315 315 315 315 314 313 313 314 314 313 314 314 311 313 317 317 316 315 314 314 313 313 313 313 314 314 314 315 314 314 315 314 315 316 315 315 314 315 316 318 320 322 321 320
320 319 319 321 321 320 321 320 319 318 317 317 317 315 313 315 316 316 314 313 313 314 314 315 315 314 313 312 312 312 312 309 308 311 313 314 314 314 313 313 312 313 313 313 314 313 314 314 313 314 315 315 315 314 314 314 315 314 314 317 321 324 326
320 319 319 321 321 320 321 320 320 320 318 317 317 315 315 317 316 315 313 311 311 313 313 315 315 315 314 311 310 312 313 311 308 307 309 312 314 314 313 312 311 312 312 313 313 312 312 313 313 313 314 316 318 317 314 314 315 314 314 314 316 318 320
320 320 320 321 321 321 321 320 320 321 319 318 318 316 316 317 315 312 310 309 309 309 310 313 314 315 313 310 311 313 315 315 312 309 309 310 313 314 313 312 310 310 313 313 310 309 310 312 313 312 313 314 317 318 318 318 317 314 313 313 314 313 313
321 320 320 320 321 321 320 320 320 321 320 319 319 317 315 317 316 314 311 309 308 308 309 313 314 314 313 312 313 315 316 315 313 311 310 308 310 313 313 313 310 309 312 312 311 310 310 311 312 311 312 312 314 317 318 321 319 314 313 313 313 313 312
320 321 320 319 320 321 320 320 320 321 321 320 320 318 316 316 317 315 313 312 310 308 308 312 314 313 314 314 314 314 314 312 312 312 311 307 307 310 312 312 311 309 310 312 312 312 311 310 310 310 311 311 312 314 314 317 318 315 311 312 312 312 311
320 320 321 320 318 321 321 319 320 320 321 320 320 319 318 317 318 317 315 314 313 311 309 312 315 313 314 315 314 314 312 311 312 311 310 307 306 309 310 311 310 308 309 312 312 311 310 310 311 309 310 310 310 312 312 313 316 314 311 311 311 310 310
320 318 320 321 319 320 321 320 319 319 321 321 320 320 319 318 318 317 317 316 316 314 312 313 315 313 313 314 314 314 312 313 314 311 310 310 309 310 311 311 309 307 307 309 309 309 309 310 311 310 311 311 311 311 311 311 313 312 310 310 310 309 309
323 321 320 322 319 319 320 321 320 319 320 321 320 321 321 320 319 318 317 317 317 317 315 314 315 313 313 314 314 314 312 313 315 312 311 312 311 310 311 311 311 309 307 305 306 309 309 309 309 309 310 310 309 310 310 309 310 310 309 309 309 309 309
325 324 323 323 321 320 320 320 320 320 320 321 321 321 321 321 320 319 318 317 318 318 317 316 316 314 313 314 314 314 313 313 314 313 312 312 310 309 310 310 310 311 308 305 305 308 308 307 308 308 308 308 308 308 308 308 309 309 309 309 309 309 309
323 323 323 323 323 323 322 321 321 321 321 321 321 321 321 321 321 320 319 319 319 318 319 318 316 315 314 314 314 314 313 313 312 313 313 311 310 310 309 308 309 310 309 306 305 307 308 308 308 308 308 307 307 307 307 308 308 308 308 309 308 308 307
322 323 322 323 323 323 323 322 323 322 321 321 320 321 322 322 322 321 320 320 320 319 319 319 318 317 316 314 314 315 315 314 312 312 313 312 311 311 310 308 309 310 310 308 307 307 308 309 309 308 307 307 307 307 307 306 307 307 307 307 307 307 307
321 321 321 322 322 322 322 322 323 323 322 322 320 320 321 322 322 322 321 321 320 320 319 319 318 318 317 316 315 315 315 315 313 311 312 312 310 310 311 310 309 310 310 309 308 308 308 309 308 307 306 306 306 306 306 306 306 306 306 306 306 306 306
320 320 321 322 321 321 320 320 321 320 320 320 319 319 320 320 320 320 321 320 321 320 319 319 319 318 317 317 316 315 315 315 314 312 312 312 311 310 310 310 309 309 309 308 308 308 308 307 307 306 306 306 306 305 305 305 305 305 304 304 304 304 304
321 321 322 322 322 321 320 320 320 319 319 320 319 318 317 318 317 318 318 319 320 320 320 319 319 318 318 317 316 316 316 315 315 313 312 312 312 311 310 309 309 309 308 308 307 307 306 306 306 304 303 302 302 301 301 301 302 302 303 303 303 303 303
323 323 324 324 323 322 321 321 321 320 321 321 319 318 317 317 317 316 317 318 319 320 320 320 319 319 318 317 317 316 316 316 315 314 313 312 312 311 310 309 308 308 307 307 306 305 306 305 302 298 296 296 296 296 297 298 298 299 299 299 299 299 300
321 322 322 322 322 323 322 322 322 322 322 322 321 321 319 319 318 318 318 319 319 319 319 319 319 319 318 318 318 317 316 315 315 314 312 312 311 310 309 309 307 307 306 306 305 305 305 303 299 295 293 293 293 294 295 295 296 295 296 296 296 297 297
315 315 315 316 317 318 318 318 318 319 319 320 320 321 320 319 319 319 320 320 320 320 320 319 319 319 318 318 318 318 317 316 315 313 312 312 311 310 309 308 307 306 305 305 305 304 304 302 298 296 295 294 295 295 296 296 296 296 297 297 297 297 298
311 311 312 313 313 314 314 315 316 316 316 317 318 319 320 320 320 320 320 320 320 320 320 320 320 319 318 318 318 318 317 316 314 313 312 311 311 309 308 307 306 306 305 304 304 304 303 301 299 297 297 298 298 298 298 297 297 297 298 298 298 298 298
309 309 310 311 312 312 313 314 315 317 318 319 319 320 320 321 321 321 321 321 321 321 320 320 320 320 319 319 318 318 318 316 314 313 312 311 311 310 308 307 306 305 305 304 304 303 302 301 299 299 300 300 300 299 298 298 297 298 298 299 299 299 298
307 307 308 308 309 309 310 310 310 312 314 316 318 320 320 321 321 321 321 321 321 321 321 321 321 320 319 319 318 319 318 316 314 313 312 312 311 309 308 307 305 305 304 304 304 303 302 301 300 300 301 301 300 299 298 297 297 297 297 298 298 298 299
307 308 308 308 308 308 308 308 308 308 309 310 313 316 317 318 320 321 321 321 321 321 321 320 320 320 319 319 318 318 317 315 314 313 312 311 309 308 307 306 305 305 304 303 303 302 302 301 301 301 301 301 300 299 298 297 297 296 296 297 298 298 299
308 308 308 308 307 307 307 307 308 308 308 309 310 312 314 316 317 318 318 319 320 320 320 320 320 319 319 318 317 316 315 313 312 310 309 308 307 306 305 305 304 303 303 302 302 302 301 301 301 301 301 300 299 298 298 297 297 296 296 297 297 298 298
308 308 308 308 308 307 307 307 307 307 308 308 308 310 312 314 315 316 317 318 319 320 320 319 319 318 316 315 314 314 312 310 309 308 307 306 306 305 304 303 303 302 302 301 301 301 301 301 301 301 300 299 298 298 297 297 297 296 296 297 297 297 297
308 308 308 308 308 307 307 307 307 307 307 307 308 308 310 312 313 314 316 318 319 319 319 319 318 315 313 312 312 311 309 308 307 306 305 304 304 304 303 303 302 302 301 301 301 301 301 301 301 300 299 298 298 297 297 297 297 297 297 297 296 296 296
308 308 308 308 308 307 307 307 306 306 306 307 307 307 308 311 313 313 314 315 316 317 318 318 316 313 310 310 310 308 306 306 305 304 303 303 302 302 302 302 302 302 302 301 302 302 302 301 300 299 298 297 297 297 297 296 296 296 296 296 295 295 295
307 307 308 308 308 307 307 307 307 307 307 307 308 307 308 310 313 313 313 314 314 315 316 315 313 310 308 308 308 306 305 304 303 302 302 302 302 301 301 301 301 301 301 301 301 301 300 299 298 297 296 296 296 295 295 294 294 293 293 293 292 292 292
306 306 306 307 307 307 308 308 308 308 308 308 308 309 309 311 312 312 313 314 314 314 314 313 309 307 307 306 306 305 304 303 302 301 300 300 300 299 299 298 298 298 299 299 299 298 297 297 296 296 295 294 294 293 293 292 292 291 291 291 291 291 291
306 306 306 306 307 308 308 309 309 308 308 308 309 310 310 310 311 311 312 312 312 312 313 311 307 304 304 304 304 304 303 301 301 300 299 299 299 297 296 296 296 296 296 296 296 296 295 295 295 294 294 293 293 292 292 292 291 291 291 291 291 291 291
306 305 305 306 307 308 308 308 309 308 308 308 310 310 310 309 309 309 309 309 310 309 309 308 306 303 303 303 302 301 301 299 299 299 299 298 297 295 295 295 295 295 296 296 296 295 295 294 294 293 293 293 292 292 292 292 292 291 291 291 291 291 291
306 305 305 305 306 307 307 308 308 308 308 309 310 309 308 307 306 306 305 305 306 306 304 303 302 302 301 301 300 299 299 298 297 297 296 294 293 293 294 295 295 295 296 296 295 294 294 293 293 293 293 292 292 292 292 292 292 292 292 292 291 291 291
305 305 304 304 305 306 307 308 308 308 309 309 309 308 307 306 304 303 303 303 302 301 300 299 299 299 299 299 299 298 297 296 294 294 293 293 293 293 295 295 296 296 296 295 294 293 293 293 293 293 292 292 292 292 292 292 292 292 292 292 292 292 292
Wind_Speed
22 21 20 19 17 16 18 17 15 15 13 13 13 11 10 10 11 15 14 14 14 13 13 14 14 13 12 11 11 12 11 8 7 7 8 8 7 6 5 6 5 4 3 2 2 2 2 1 2 3 4 4 6 8 9 9 8 7 6 5 5 6 6
22 22 20 19 17 17 19 17 15 15 14 13 13 11 10 9 9 14 17 16 14 12 11 12 12 12 13 13 12 12 13 12 9 9 10 9 9 8 6 5 6 6 4 1 1 1 2 2 2 3 3 4 6 8 9 11 9 8 8 7 7 6 6
24 21 21 20 19 19 18 16 15 15 14 13 12 12 11 10 9 11 15 16 14 12 12 13 13 12 12 12 12 11 12 13 12 11 11 11 12 12 10 8 7 7 4 2 3 2 1 2 2 2 4 5 5 5 4 8 8 7 8 8 9 9 8
25 24 23 22 20 19 18 16 16 15 14 12 12 11 11 11 11 11 13 15 14 12 12 14 13 12 12 12 12 11 10 11 11 12 12 11 12 13 13 13 13 11 8 6 6 8 5 2 1 2 5 7 5 7 7 3 7 8 7 7 8 10 11
25 25 24 23 21 20 19 18 17 15 14 13 12 11 11 12 12 12 13 13 12 12 12 12 11 10 11 11 11 11 9 9 9 11 12 12 11 13 14 13 13 11 10 9 8 8 7 6 5 3 6 8 4 7 10 7 5 8 9 10 11 10 9
26 24 23 23 21 20 20 19 17 15 14 13 11 11 12 13 12 10 11 11 11 12 12 10 9 9 9 10 11 11 10 9 9 10 11 11 11 13 13 12 12 11 10 9 7 7 7 8 10 7 7 8 5 6 8 8 8 8 8 9 10 12 12
26 23 22 22 20 19 19 17 15 14 13 13 11 11 12 12 11 8 8 10 10 12 12 10 9 9 8 9 10 10 10 10 9 9 10 10 11 12 11 10 10 9 8 7 6 7 6 8 11 9 8 8 6 7 8 8 9 11 16 19 16 6 6
24 22 20 21 19 18 18 16 15 13 12 11 10 10 11 11 9 8 7 8 9 10 10 10 10 8 6 7 9 10 10 10 10 10 10 10 12 12 10 9 8 8 7 5 4 4 4 5 7 9 9 6 4 6 6 7 8 9 14 19 20 20 13
22 21 19 19 18 17 17 15 15 13 11 11 9 9 10 9 7 7 7 7 7 8 10 10 9 7 5 6 9 10 10 8 8 9 10 10 11 12 10 8 7 8 7 5 6 6 6 5 6 7 9 7 4 3 4 5 6 5 12 16 13 16 20
21 20 20 18 16 16 16 14 14 14 12 11 10 9 10 9 7 6 6 6 7 7 9 9 7 6 5 6 8 8 7 6 6 7 7 8 10 10 10 8 7 8 7 7 8 10 9 8 7 6 7 7 6 3 1 4 4 4 10 15 11 13 17
19 18 19 18 16 15 16 14 13 14 13 12 11 10 10 9 8 6 5 6 6 6 8 8 6 7 6 5 7 6 6 7 6 5 5 5 8 9 9 7 5 7 8 7 7 8 8 7 7 5 4 4 5 5 3 2 3 4 12 16 13 14 17
17 16 16 17 17 16 16 15 13 12 13 12 11 10 9 9 8 7 6 6 5 5 7 8 7 7 8 6 7 7 5 6 5 5 4 3 6 8 8 6 5 6 7 6 6 6 4 4 5 6 4 4 4 3 3 2 1 5 13 17 17 18 19
16 16 14 16 19 17 15 15 14 12 11 11 11 9 8 8 8 7 7 7 7 6 6 8 7 7 8 7 7 7 6 7 6 4 4 3 4 5 4 3 2 3 5 5 6 5 3 3 4 5 4 3 3 2 4 3 2 6 12 14 17 19 20
14 14 13 14 19 18 14 14 13 11 11 11 10 10 8 7 8 8 8 8 8 8 7 8 9 8 8 8 7 7 6 8 8 6 5 6 5 3 3 1 1 0 2 3 4 4 3 4 4 5 4 4 4 4 5 5 4 7 12 14 15 17 17
11 11 11 12 16 17 14 13 10 9 11 10 9 9 9 9 9 9 9 10 10 10 9 9 10 10 9 9 9 9 8 9 9 8 8 8 7 6 5 4 3 2 2 2 2 3 3 3 3 5 5 5 5 5 5 6 6 7 11 14 14 14 14
10 9 9 10 12 13 13 12 11 9 10 9 7 6 8 9 10 10 11 12 12 13 13 12 12 12 11 11 11 11 11 11 10 10 11 9 8 8 7 6 5 4 4 2 1 2 3 2 1 1 1 2 3 4 4 5 6 7 9 12 12 13 15
12 10 8 7 8 10 11 11 12 12 10 9 7 5 6 10 11 12 13 15 15 15 16 15 15 14 13 13 14 13 14 13 12 11 12 11 9 9 9 7 5 5 5 2 1 0 0 1 2 1 1 2 2 4 5 5 6 7 8 11 13 14 15
15 14 13 13 13 13 12 11 12 12 11 12 11 8 7 9 11 13 15 16 16 17 18 18 18 18 17 16 16 16 16 16 14 13 13 12 10 10 9 7 5 6 6 4 3 3 3 3 4 3 3 3 3 5 6 6 6 6 8 11 14 15 15
13 15 14 14 14 15 14 13 13 12 12 14 16 15 14 13 13 15 16 14 13 15 18 19 20 20 20 19 18 18 19 19 16 14 15 13 11 10 10 7 7 7 6 5 5 5 5 5 5 4 3 4 4 5 6 6 7 7 8 10 13 15 16
10 12 12 10 12 14 14 14 14 13 15 18 20 21 20 19 19 19 19 17 15 13 15 19 21 21 20 20 20 20 21 21 19 17 17 15 13 13 11 9 8 9 8 8 8 8 8 7 5 5 5 6 6 7 7 7 7 7 9 11 12 13 15
9 9 7 6 7 9 11 12 11 12 15 19 21 21 21 21 21 22 23 23 20 18 16 17 20 21 19 18 19 22 24 23 21 20 19 18 17 16 14 12 11 11 11 10 10 10 9 7 7 9 9 9 8 8 7 7 8 9 10 12 14 14 15
9 8 7 6 6 6 7 8 10 12 15 17 19 20 20 20 21 23 25 24 22 21 21 20 20 21 21 19 19 22 25 26 24 22 22 20 18 17 14 13 13 12 12 12 11 11 10 9 10 11 10 9 9 8 8 8 9 11 12 13 15 16 16
8 7 7 7 7 8 8 9 10 12 13 14 14 16 18 19 19 21 24 25 23 22 22 23 23 23 23 23 23 22 23 27 27 24 23 21 19 17 16 15 14 13 13 13 12 11 11 11 11 10 10 9 8 6 7 9 10 12 13 14 15 15 15
6 5 3 4 5 7 9 10 11 11 12 12 13 14 17 18 19 19 21 23 22 21 21 22 23 24 24 25 26 24 22 26 27 25 24 24 21 19 18 16 15 13 13 13 13 12 12 12 11 9 8 7 6 6 7 9 11 12 13 15 16 16 15
4 3 2 3 3 4 5 6 8 9 11 12 13 14 16 17 17 17 17 18 18 18 19 19 20 23 23 24 25 24 22 25 27 26 26 25 23 21 18 17 15 14 14 14 13 13 12 13 11 9 8 7 7 7 7 8 10 12 14 17 19 19 19
2 1 1 2 2 1 0 1 3 4 6 7 9 10 11 13 14 14 13 13 13 14 15 16 17 19 20 21 22 22 23 26 29 28 25 24 21 19 17 16 15 15 14 13 12 12 12 12 11 10 9 9 8 7 7 9 10 12 14 17 20 22 22
2 2 3 3 2 1 2 3 5 6 6 6 6 6 7 9 11 12 11 10 10 11 12 14 14 14 15 17 19 22 24 26 27 24 22 20 18 16 15 15 16 14 12 11 10 10 10 11 11 12 12 11 10 9 10 12 14 14 14 16 19 22 22
2 2 1 1 1 1 2 3 5 6 7 7 7 7 8 9 9 11 13 12 10 9 11 13 13 13 14 14 16 20 23 23 22 20 17 16 15 14 13 14 14 11 9 8 9 9 10 11 12 14 13 12 12 12 14 16 17 16 15 15 18 20 20
4 3 2 2 2 2 3 4 4 6 7 8 8 9 10 10 10 9 11 12 11 10 11 13 13 12 12 11 15 21 22 21 19 17 14 13 14 14 13 12 11 9 9 10 10 11 12 13 15 16 14 13 14 14 15 16 16 15 15 15 17 18 18
4 4 4 4 4 3 4 4 5 7 8 9 10 11 11 11 12 10 9 11 11 10 11 13 12 10 10 13 18 20 20 18 16 15 14 13 12 11 10 9 8 9 10 11 12 13 14 15 16 16 15 14 14 14 14 14 13 13 14 15 17 17 18
5 6 6 5 5 5 6 6 7 8 9 11 12 13 13 12 12 12 11 11 10 9 10 12 12 12 13 16 17 16 16 16 15 14 12 9 6 6 7 8 9 11 12 13 13 13 14 15 15 14 13 14 14 14 15 15 16 17 18 19 20 21 23
5 5 6 7 8 9 9 9 8 8 9 11 13 14 15 14 12 12 12 13 11 9 10 12 14 15 16 16 15 14 14 13 12 9 7 6 6 6 6 6 7 10 12 12 12 13 13 12 12 12 12 13 15 17 18 18 20 21 21 21 22 22 22
8 9 11 13 13 13 12 10 9 9 10 11 13 15 15 13 11 11 11 12 11 10 11 14 16 17 17 16 15 15 13 12 11 9 9 8 7 4 2 2 2 4 6 8 9 9 9 9 10 11 13 15 17 19 18 18 18 18 18 19 19 19 18
11 12 13 14 15 14 13 11 10 9 9 11 14 14 10 8 9 10 10 10 11 12 13 15 18 19 17 16 15 14 14 13 13 12 10 8 6 3 2 4 4 4 5 6 6 7 8 10 13 14 16 16 16 15 15 15 15 15 17 19 19 18 17
14 14 13 12 13 13 13 12 11 10 10 12 12 9 7 9 9 10 11 10 12 14 16 17 19 19 18 16 14 13 12 12 10 10 8 6 3 1 3 4 3 4 5 5 7 10 12 14 14 14 13 12 12 13 13 14 16 17 19 20 20 18 18
13 13 12 12 14 15 15 15 13 11 9 10 9 6 9 10 10 11 12 12 13 17 19 19 19 19 18 16 14 12 10 8 6 5 4 2 1 1 3 3 3 4 6 8 12 14 13 12 11 10 10 10 12 13 14 16 17 19 20 20 19 19 19
16 16 17 18 18 18 17 16 14 11 9 9 8 10 11 11 12 12 13 13 15 17 20 20 18 17 15 14 11 9 7 5 3 2 2 2 3 3 3 4 5 7 10 12 13 11 9 8 7 8 9 11 12 12 14 16 17 18 19 19 19 19 19
Wind_Direction
138 135 135 131 125 119 115 114 108 103 101 99 99 103 100 95 90 87 100 113 106 105 109 107 107 105 101 100 94 87 84 96 110 113 122 127 123 129 163 177 168 175 199 192 171 153 128 184 266 268 272 264 244 237 228 227 232 228 228 235 255 264 256
141 137 136 131 127 124 121 119 116 110 108 104 102 103 99 94 95 90 90 95 92 90 98 106 110 109 106 102 98 92 87 87 88 93 103 105 102 103 115 153 178 187 187 149 143 159 141 152 270 286 309 301 274 260 237 226 233 232 230 232 233 245 256
144 141 139 134 132 132 126 120 121 120 118 116 112 111 107 100 103 99 91 90 89 84 84 92 101 102 102 100 97 97 96 94 92 97 102 96 91 90 89 100 129 153 146 93 68 55 99 172 244 281 343 343 318 314 272 232 233 232 232 238 236 241 247
150 147 144 142 140 137 131 127 128 129 126 125 121 117 115 108 106 107 103 98 98 94 85 86 91 92 95 99 99 101 103 103 102 101 101 98 93 86 83 88 96 104 100 80 64 56 58 64 307 289 349 356 355 9 6 289 245 241 237 240 238 244 252
155 153 150 149 147 143 139 137 134 131 128 128 123 117 115 111 106 109 113 110 106 102 96 93 92 93 98 100 101 102 102 108 114 111 104 99 95 86 80 84 86 86 84 80 70 58 52 47 43 26 1 5 2 358 4 356 303 278 266 258 248 243 247
160 159 155 152 151 146 145 145 143 137 133 134 130 121 118 114 109 108 114 117 114 108 105 99 91 92 93 95 102 101 97 103 115 122 115 105 99 91 83 79 78 77 75 72 66 62 60 52 48 35 4 5 358 342 354 5 6 5 357 328 287 259 245
165 162 157 156 154 150 150 151 150 145 139 141 139 131 125 120 118 116 115 119 122 119 114 104 99 100 93 92 98 96 91 93 102 115 120 116 109 100 95 91 85 83 76 65 56 54 56 52 49 37 12 2 355 351 353 2 23 42 38 34 37 27 252
168 163 159 160 158 155 155 156 157 154 145 145 147 138 132 132 133 132 127 123 124 129 124 112 108 108 100 96 97 92 87 82 85 95 102 112 111 100 98 98 91 95 89 71 57 43 52 62 56 46 33 28 8 353 347 354 15 40 39 41 49 49 48
167 164 161 165 165 160 158 159 165 164 154 152 153 146 143 146 147 140 137 133 128 131 130 124 119 114 106 106 103 94 90 84 79 84 90 105 111 100 95 90 82 93 88 62 58 55 65 81 72 56 43 45 49 359 332 347 356 14 28 35 37 28 32
166 165 165 168 170 167 162 161 167 168 164 165 162 155 155 159 161 152 146 147 143 137 135 136 141 136 123 116 116 112 113 115 102 90 90 102 114 111 100 87 73 85 85 70 66 58 57 67 66 53 35 31 43 54 25 349 334 309 357 17 27 9 8
167 166 169 171 171 171 168 162 164 170 172 175 172 164 163 169 174 172 165 162 161 158 152 154 162 157 151 145 142 148 152 146 134 125 115 101 114 124 119 105 81 84 93 87 81 66 53 57 56 49 47 33 27 43 62 353 328 327 343 353 4 -0 353
176 173 173 176 174 174 174 169 167 171 175 179 179 174 172 178 183 183 185 187 186 185 171 169 178 173 170 173 170 173 169 153 153 154 148 115 111 121 127 121 91 92 107 107 108 98 61 46 40 35 58 65 37 25 22 9 298 321 341 343 342 342 341
183 182 183 184 181 177 173 172 172 174 176 181 183 185 188 191 197 196 197 204 206 207 193 184 194 192 184 190 193 194 183 168 178 183 166 156 122 112 123 120 55 85 112 111 121 121 87 64 31 7 10 30 31 355 334 340 274 304 330 336 331 332 335
182 180 178 181 184 181 172 169 174 181 186 188 187 191 198 206 216 216 211 217 220 220 215 202 205 209 203 208 213 215 206 189 195 203 183 176 175 163 165 183 291 316 62 72 121 129 85 87 68 39 43 34 25 20 351 339 314 308 320 326 327 332 340
167 162 154 155 171 176 172 166 166 173 180 181 185 196 205 211 220 226 225 227 227 228 229 217 215 217 214 216 221 225 224 209 206 212 203 195 201 204 195 182 189 224 294 0 105 106 69 79 75 56 64 58 38 32 18 358 343 320 316 323 331 334 338
151 148 141 141 151 161 169 172 171 172 170 164 165 187 208 215 218 224 229 232 231 231 233 227 222 223 221 222 224 227 228 222 217 218 218 214 215 218 214 199 194 221 258 288 78 79 59 58 53 28 38 44 27 13 11 5 357 345 328 326 329 329 329
155 155 157 164 165 166 173 183 191 196 197 196 193 189 196 201 205 213 227 234 231 228 230 229 226 225 226 227 227 228 228 225 223 225 226 224 223 228 229 218 210 229 246 234 167 157 272 253 256 262 295 305 315 323 327 330 337 343 335 325 321 321 323
175 182 193 201 204 199 193 197 204 207 214 224 232 241 225 203 201 209 221 231 233 231 230 227 225 225 226 226 225 226 227 227 226 228 229 228 230 232 228 221 217 226 235 224 207 227 236 242 261 269 279 290 290 299 307 308 312 320 324 322 316 312 314
196 201 206 201 201 206 206 207 210 216 230 234 232 237 238 229 224 223 225 229 233 232 226 221 220 220 222 223 223 222 224 226 226 227 230 231 230 225 216 215 222 225 232 235 229 235 244 250 264 268 265 276 283 287 295 301 303 306 310 313 310 309 311
195 200 206 204 211 223 224 217 217 227 237 236 232 235 239 239 237 239 240 240 241 235 224 223 225 223 220 220 222 222 221 221 222 222 224 225 221 216 215 220 226 229 237 242 239 244 253 256 265 278 280 280 282 285 292 299 302 306 310 311 310 310 311
168 178 186 196 217 230 229 225 228 233 232 233 238 244 248 249 249 252 252 250 246 238 232 234 236 234 228 222 223 226 223 218 217 215 214 216 215 215 222 227 227 231 237 241 246 252 255 262 281 293 292 289 290 293 298 304 308 310 311 310 308 309 310
167 174 178 184 194 207 214 218 224 229 232 238 245 250 253 255 257 258 256 253 249 243 242 246 248 246 242 233 228 230 227 220 214 209 206 207 210 213 218 222 223 231 240 244 250 253 252 268 289 296 293 291 294 297 304 313 320 323 321 316 312 313 314
170 174 181 188 192 199 207 216 221 225 231 237 244 250 254 256 257 256 254 252 250 245 244 247 252 255 254 247 239 237 234 223 214 206 202 201 203 208 213 218 223 233 241 245 247 249 256 273 287 289 288 290 295 301 314 324 329 331 327 320 315 315 315
168 169 178 189 195 207 218 228 236 238 239 239 243 250 254 254 254 254 255 254 251 248 248 252 257 260 261 254 245 241 237 223 211 205 202 200 200 204 210 217 222 231 240 243 247 252 263 275 282 283 281 282 288 300 316 325 327 326 322 315 312 311 307
167 185 208 200 200 216 228 239 248 252 250 247 248 251 254 253 251 250 253 255 256 258 261 264 265 264 263 257 244 239 235 222 211 206 204 203 203 205 211 216 219 227 235 239 246 255 266 276 282 281 273 264 266 283 304 316 317 318 316 310 305 303 300
166 173 128 121 113 116 261 307 311 300 284 270 259 253 254 256 251 248 252 259 266 274 273 270 270 267 263 254 244 241 234 220 210 206 203 201 203 206 211 216 219 223 228 234 244 254 265 276 282 279 267 254 251 265 289 302 306 309 311 305 297 296 298
158 129 119 106 77 19 318 320 322 320 319 314 300 280 272 269 258 250 256 268 275 279 276 272 272 270 264 258 248 239 226 212 205 202 198 195 198 202 210 215 217 217 220 231 243 249 257 268 273 267 257 249 252 269 287 297 302 304 305 303 296 296 300
209 189 142 116 36 3 321 309 307 306 307 309 309 302 289 281 272 263 264 268 271 270 269 269 268 268 270 264 239 219 207 197 189 183 181 186 193 196 199 200 200 202 211 228 238 242 250 257 255 249 246 250 261 275 286 292 298 300 301 300 297 298 302
222 217 210 225 238 258 285 295 300 301 298 293 295 298 289 278 278 277 265 257 255 256 263 267 266 264 260 241 211 197 189 184 178 172 175 189 196 196 197 199 206 225 242 249 253 255 258 258 251 246 249 258 268 275 282 288 292 294 294 291 290 294 296
220 219 228 238 239 246 264 280 288 291 293 291 288 291 291 279 271 270 260 249 244 243 249 254 252 241 221 204 194 186 181 179 178 176 179 185 191 200 213 229 247 261 264 260 257 257 256 252 248 250 257 266 272 276 280 284 283 281 280 276 276 279 281
234 232 234 234 237 248 262 272 280 283 288 292 289 289 293 283 263 254 253 248 241 238 238 234 225 212 200 194 189 180 176 176 173 172 177 182 198 222 236 250 260 260 256 252 248 244 242 242 245 253 263 270 276 278 279 282 282 281 280 278 277 277 278
256 243 236 241 250 260 265 267 268 272 282 290 291 292 294 284 258 241 242 241 232 226 221 211 204 200 196 195 191 182 176 175 170 169 177 185 194 212 225 236 248 249 245 243 243 241 242 247 255 265 275 283 288 290 290 292 293 292 292 292 293 295 295
264 258 256 258 260 258 257 256 258 265 275 283 290 295 294 277 247 225 223 224 215 206 203 195 190 193 194 193 192 187 178 172 168 162 160 160 158 159 194 251 277 270 254 247 248 251 258 270 280 287 293 298 300 301 302 302 302 303 304 306 309 312 312
258 260 259 257 252 248 246 247 251 260 269 280 290 293 280 244 216 199 194 199 195 190 194 190 184 186 189 187 187 187 178 169 166 162 156 155 151 128 9 336 325 305 282 267 267 281 297 303 304 306 307 308 310 313 315 313 313 312 310 308 309 310 310
262 264 266 260 249 241 239 241 247 257 271 283 287 275 225 197 187 176 172 176 178 177 181 185 182 182 187 186 182 180 175 168 168 168 166 170 176 193 335 331 314 286 278 280 294 308 314 314 315 317 319 321 325 326 321 315 313 310 306 305 305 303 301
268 267 270 270 262 252 245 245 249 252 264 275 267 213 182 177 170 162 157 160 169 173 174 177 178 178 181 181 175 174 176 177 183 188 185 184 189 237 293 304 287 277 287 301 311 316 318 319 324 328 330 329 328 324 318 313 311 309 306 306 304 299 297
275 275 274 272 267 258 246 242 241 236 238 248 228 184 172 170 162 154 151 154 164 170 170 171 173 172 172 173 173 177 187 196 208 203 163 149 165 192 251 285 292 297 305 311 315 315 314 317 323 324 323 324 325 324 322 321 319 316 311 305 300 296 295